CAPE
0 115 229 1300 2452 2714 2344 2300 1771 1489 1397 1721 1819 1419 1540 1079 648 358 85 76 97 30 9 0 0 0 0 3 4 32 12 36 56 35 0 1 13 11 52 24 140 40 33
0 17 80 309 1228 1586 1860 1595 1411 1190 1332 1742 1633 1652 1546 1044 309 188 181 85 5 5 2 2 0 12 7 11 6 7 24 39 38 13 0 0 0 0 4 14 64 11 37
0 19 41 116 565 617 856 881 1007 955 1500 1360 1715 1457 1071 382 300 262 218 118 0 1 0 0 0 0 2 7 7 2 17 6 13 4 6 0 0 0 0 3 19 67 19
1 17 48 12 218 356 534 549 699 1208 1054 1087 1511 1313 528 349 235 223 20 4 0 0 0 0 0 0 0 0 0 0 0 0 0 0 19 50 31 18 27 0 10 9 18
26 98 89 30 4 118 436 689 659 896 894 825 732 600 388 228 114 16 0 0 0 0 0 0 0 0 0 0 0 0 0 0 0 0 0 8 22 40 33 20 1 1 0
51 88 147 42 7 37 257 547 645 627 772 564 568 597 549 200 66 9 0 0 0 0 0 0 0 0 0 0 0 0 0 0 0 0 0 0 0 11 15 22 17 2 1
34 104 201 83 70 97 223 398 439 393 485 574 524 610 628 208 194 90 11 0 0 0 0 0 0 0 0 0 0 0 0 0 0 0 0 0 0 1 14 44 41 15 3
31 78 230 270 229 218 213 288 378 496 657 547 527 515 385 175 126 27 4 1 2 5 0 0 0 0 0 0 0 0 0 0 0 0 0 0 0 0 3 13 45 37 6
13 24 112 335 391 371 372 495 294 166 212 331 366 287 384 279 102 140 46 39 1 18 5 0 0 0 0 0 0 0 0 0 0 0 0 0 0 0 5 15 16 19 11
0 0 0 92 226 313 327 467 190 6 30 144 241 284 345 300 196 162 157 157 115 84 28 51 43 14 0 0 0 0 1 0 0 0 0 0 0 0 0 4 7 20 24
0 0 0 0 4 25 39 201 148 75 52 142 153 166 184 172 179 204 196 180 180 143 111 71 91 42 28 7 2 0 1 3 0 3 0 0 0 0 0 0 0 0 4
0 0 0 0 0 0 0 35 99 50 15 49 133 239 204 179 135 146 143 153 131 87 57 41 29 30 36 33 20 0 0 5 3 7 3 0 0 0 0 0 0 0 0
0 0 0 0 0 0 0 0 6 11 86 75 253 177 166 150 114 113 72 50 60 40 25 17 18 18 16 13 23 19 13 14 6 3 1 0 0 0 0 0 0 0 0
0 0 0 0 0 0 0 0 0 0 0 0 83 143 130 121 86 38 17 0 0 0 0 0 0 7 6 3 2 1 9 6 4 0 0 0 0 0 3 3 0 0 0
0 0 0 0 0 0 0 0 0 0 0 0 15 88 110 72 20 13 0 0 0 0 0 0 0 0 1 0 1 9 6 3 3 0 3 2 0 0 3 4 0 0 0
0 0 0 0 0 0 0 0 0 0 0 0 18 33 59 34 1 0 0 0 0 0 0 4 13 3 0 1 2 3 7 6 0 0 1 1 2 6 6 0 0 0 0
21 2 0 0 1 1 0 0 0 0 0 0 0 3 0 0 0 0 0 0 0 5 6 3 0 0 0 0 1 3 0 4 1 4 0 0 0 0 0 0 0 0 0
8 0 0 0 0 0 0 0 0 0 0 0 1 0 0 0 0 2 3 1 0 0 0 0 0 0 0 0 0 0 0 2 0 1 0 0 0 0 0 0 0 0 0
25 20 13 0 0 0 0 0 0 0 1 18 14 6 1 0 0 0 0 0 0 0 0 0 0 0 0 0 0 0 0 0 0 0 0 0 0 0 0 0 0 0 0
7 35 60 73 3 0 0 0 0 0 1 0 0 0 0 0 0 0 0 0 0 0 0 0 0 0 0 0 0 0 0 0 0 0 0 0 0 0 0 0 0 0 0
8 24 47 40 18 3 0 0 0 0 0 0 0 0 0 0 0 0 0 0 0 0 0 0 0 0 0 0 0 0 0 0 0 0 0 0 0 0 0 0 0 0 0
0 0 11 17 9 0 0 0 0 0 0 0 0 0 0 0 0 0 0 0 0 0 0 0 0 0 0 0 0 0 0 0 0 0 0 0 0 0 0 0 0 0 0
0 0 0 0 0 0 0 0 0 0 0 0 0 0 0 0 0 0 0 0 0 0 0 0 0 0 0 0 0 0 0 0 0 0 0 0 0 0 0 0 0 0 0
0 0 0 0 0 0 0 0 0 0 0 0 0 0 0 0 0 0 0 0 0 0 0 0 0 0 0 0 0 0 0 0 0 0 0 0 0 0 0 0 0 0 0
0 0 0 0 0 0 0 0 0 0 0 0 0 0 0 0 0 0 0 0 0 0 0 0 0 0 0 0 0 0 0 0 0 0 0 0 0 0 0 0 0 0 0
0 0 0 2 23 30 14 0 0 1 0 1 0 0 0 0 0 0 0 0 0 0 0 0 0 0 0 0 0 0 0 0 0 0 0 0 0 0 0 0 0 0 0
CIN
0 -306 -268 -51 -14 -19 -54 -60 -88 -64 -84 -44 -24 -38 -18 -35 -74 -100 -93 -100 -87 -190 -254 0 0 0 0 -99 -116 -84 -79 -30 -32 -25 0 0 -81 -55 -5 0 0 -35 -12
0 -322 -345 -234 -100 -71 -66 -60 -66 -94 -74 -27 -14 -7 -1 -18 -109 -85 -39 -66 -248 -234 -279 -148 0 -135 0 -27 -1 -61 -116 -36 -26 -32 -18 0 -4 0 -10 -2 -2 -7 -21
0 -305 -336 -305 -183 -183 -137 -143 -109 -116 -45 -38 -3 -1 -9 -124 -97 -84 -73 -70 0 -132 0 0 0 0 0 0 -2 0 -31 0 -24 -35 -25 0 0 0 0 -2 -1 0 -2
-32 -290 -310 -363 -268 -226 -186 -178 -133 -66 -70 -42 0 -1 -97 -105 -76 -59 -266 -345 0 0 0 0 0 0 0 0 0 0 0 0 0 0 -9 -10 -2 0 -1 0 -39 -5 0
-205 -206 -243 -322 -362 -290 -190 -129 -136 -92 -78 -64 -65 -60 -96 -130 -174 -267 0 0 0 0 0 0 0 0 0 0 0 0 0 0 0 0 0 -4 -3 -1 0 0 0 0 -2
-160 -161 -187 -290 -113 -323 -228 -156 -140 -134 -77 -99 -71 -35 -11 -140 -253 -318 0 0 0 0 0 0 0 0 0 0 0 0 0 0 0 0 0 0 -2 -7 -7 0 0 0 0
-158 -143 -157 -218 -264 -270 -211 -178 -169 -161 -113 -65 -61 -24 -13 -69 -66 -150 -125 0 0 0 0 0 0 0 0 0 0 0 0 0 0 0 0 0 0 0 -4 -7 -1 -1 0
-169 -122 -105 -135 -182 -203 -201 -175 -130 -79 -39 -30 -24 -19 -34 -66 -65 -136 -189 -17 -22 -33 0 0 0 0 0 0 0 0 0 0 0 0 0 0 0 0 -10 -6 -1 0 -1
-134 -111 -109 -97 -110 -120 -121 -75 -90 -129 -89 -28 -30 -41 -26 -33 -66 -58 -62 -59 -9 -128 -32 0 0 0 0 0 0 0 0 0 0 0 0 0 0 0 -8 -8 -6 0 0
0 0 0 -119 -105 -81 -78 -28 -76 -129 -159 -60 -31 -21 -26 -30 -32 -42 -44 -25 -26 -34 -87 -93 -89 -68 0 0 0 0 -3 0 0 0 0 0 0 0 0 -3 -2 -3 -4
0 0 0 0 -49 -150 -149 -62 -65 -56 -79 -45 -27 -27 -21 -33 -32 -27 -20 -20 -22 -36 -46 -70 -67 -117 -21 -14 -5 -1 -1 -1 -2 -1 -1 0 0 0 0 0 0 0 -1
0 0 0 0 0 0 0 -119 -77 -63 -69 -53 -38 -26 -33 -30 -28 -29 -26 -42 -46 -60 -43 -47 -44 -35 -14 -12 -23 -1 0 -3 -1 -2 0 0 0 0 0 0 0 0 0
0 0 0 0 0 0 0 0 -112 -79 -55 -49 -21 -44 -43 -13 -13 -12 -33 -48 -57 -46 -57 -63 -54 -30 -25 -30 -29 -43 -55 -1 0 0 0 0 0 0 0 0 0 0 0
0 0 0 0 0 0 0 0 0 -10 0 -3 -49 -36 -30 -24 -19 -17 -22 0 0 0 0 0 0 -76 -62 -30 -56 -1 -2 0 0 0 0 0 0 0 0 0 0 0 0
0 0 0 0 0 0 0 0 0 0 0 0 -85 -41 -26 -31 -41 -41 -1 0 0 0 0 0 0 0 -2 0 -1 -18 0 0 0 0 0 0 0 0 0 0 0 0 0
-20 0 0 0 0 0 0 0 0 0 0 0 -87 -81 -39 -50 -44 0 0 0 0 0 0 -1 -1 -7 0 0 0 0 0 0 0 0 0 0 0 0 0 0 0 0 0
-9 -12 0 0 -5 -2 0 0 0 0 0 0 0 -80 -10 0 0 0 0 0 0 -1 -1 -2 0 0 0 0 0 0 0 0 0 0 0 0 0 0 0 0 0 0 0
-74 -1 0 0 0 0 0 0 0 0 0 0 -61 0 0 0 0 -18 -28 -6 0 0 0 0 0 0 0 0 0 0 0 0 0 0 0 0 0 0 0 0 0 0 0
-62 -15 -15 0 0 0 0 0 0 0 -28 -63 -83 -51 -16 0 0 0 0 0 0 0 0 0 0 0 0 0 0 0 0 0 0 0 0 0 0 0 0 0 0 0 0
-45 -17 -5 -7 -18 0 0 0 0 0 -18 0 0 0 0 0 0 0 0 0 0 0 0 0 0 0 0 0 0 0 0 0 0 0 0 0 0 0 0 0 0 0 0
-17 -10 -6 -6 -3 -9 0 0 0 0 0 0 0 0 0 0 0 0 0 0 0 0 0 0 0 0 0 0 0 0 0 0 0 0 0 0 0 0 0 0 0 0 0
0 0 -4 -4 -5 0 0 0 0 0 0 0 0 0 0 0 0 0 0 0 0 0 0 0 0 0 0 0 0 0 0 0 0 0 0 0 0 0 0 0 0 0 0
0 0 0 0 0 0 0 0 0 0 0 0 0 0 0 0 0 0 0 0 0 0 0 0 0 0 0 0 0 0 0 0 0 0 0 0 0 0 0 0 0 0 0
0 0 0 0 0 0 0 0 0 0 0 0 0 0 0 0 0 0 0 0 0 0 0 0 0 0 0 0 0 0 0 0 0 0 0 0 0 0 0 0 0 0 0
0 0 0 0 0 0 0 0 0 0 0 0 0 0 0 0 0 0 0 0 0 0 0 0 0 0 0 0 0 0 0 0 0 0 0 0 0 0 0 0 0 0 0
0 0 0 -5 -6 -9 0 0 0 -3 -4 -4 -5 -6 -3 0 0 0 0 0 0 0 0 0 0 0 0 0 0 0 0 0 0 0 0 0 0 0 0 0 0 0 0
Wind_Speed
nan 39 33 30 41 40 40 37 36 34 30 25 25 26 28 30 31 32 nan nan nan nan nan nan nan nan nan nan nan nan nan nan nan nan nan nan nan nan nan nan 40 nan nan
nan nan nan 34 37 36 32 32 31 31 28 29 28 29 31 28 32 38 38 nan nan nan nan nan nan nan nan nan nan nan nan nan nan nan nan nan nan nan nan nan nan nan nan
nan nan nan 35 34 33 32 32 32 33 33 34 34 33 31 34 36 40 45 48 nan nan nan nan nan nan nan nan nan nan nan nan nan nan nan nan nan nan nan nan nan nan nan
nan nan nan nan 34 33 33 33 33 35 36 37 36 37 35 40 43 44 nan nan nan nan nan nan nan nan nan nan nan nan nan nan nan nan nan nan nan nan nan nan nan nan nan
nan nan nan nan nan 33 34 34 34 35 35 34 36 37 41 47 48 nan nan nan nan nan nan nan nan nan nan nan nan nan nan nan nan nan nan nan nan nan nan nan nan nan nan
nan nan 39 nan nan nan 37 37 38 35 30 30 39 42 50 53 nan nan nan nan nan nan nan nan nan nan nan nan nan nan nan nan nan nan nan nan nan nan nan nan nan nan nan
nan 36 38 nan nan nan 40 39 40 39 38 40 46 50 53 50 53 nan nan nan nan nan nan nan nan nan nan nan nan nan nan nan nan nan nan nan nan nan nan nan nan nan nan
nan nan 39 42 42 43 42 41 44 47 47 50 52 50 52 50 48 nan nan nan nan nan nan nan nan nan nan nan nan nan nan nan nan nan nan nan nan nan nan nan nan nan nan
nan nan 43 44 44 43 42 41 46 50 51 48 49 48 47 48 50 52 nan nan nan nan nan nan nan nan nan nan nan nan nan nan nan nan nan nan nan nan nan nan nan nan nan
nan nan nan nan 43 41 43 43 46 nan nan 52 50 50 52 50 50 57 47 37 40 nan nan nan nan nan nan nan nan nan nan nan nan nan nan nan nan nan nan nan nan nan nan
nan nan nan nan nan nan nan 46 46 nan nan 53 54 52 52 53 52 51 47 43 45 47 47 nan nan nan nan nan nan nan nan nan nan nan nan nan nan nan nan nan nan nan nan
nan nan nan nan nan nan nan nan nan nan nan nan 59 58 55 56 56 50 49 51 51 nan nan nan nan nan nan nan nan nan nan nan nan nan nan nan nan nan nan nan nan nan nan
nan nan nan nan nan nan nan nan nan nan nan nan 63 61 58 60 58 55 nan nan nan nan nan nan nan nan nan nan nan nan nan nan nan nan nan nan nan nan nan nan nan nan nan
nan nan nan nan nan nan nan nan nan nan nan nan nan 62 61 60 nan nan nan nan nan nan nan nan nan nan nan nan nan nan nan nan nan nan nan nan nan nan nan nan nan nan nan
nan nan nan nan nan nan nan nan nan nan nan nan nan nan 62 nan nan nan nan nan nan nan nan nan nan nan nan nan nan nan nan nan nan nan nan nan nan nan nan nan nan nan nan
nan nan nan nan nan nan nan nan nan nan nan nan nan nan nan nan nan nan nan nan nan nan nan nan nan nan nan nan nan nan nan nan nan nan nan nan nan nan nan nan nan nan nan
nan nan nan nan nan nan nan nan nan nan nan nan nan nan nan nan nan nan nan nan nan nan nan nan nan nan nan nan nan nan nan nan nan nan nan nan nan nan nan nan nan nan nan
nan nan nan nan nan nan nan nan nan nan nan nan nan nan nan nan nan nan nan nan nan nan nan nan nan nan nan nan nan nan nan nan nan nan nan nan nan nan nan nan nan nan nan
nan nan nan nan nan nan nan nan nan nan nan nan nan nan nan nan nan nan nan nan nan nan nan nan nan nan nan nan nan nan nan nan nan nan nan nan nan nan nan nan nan nan nan
nan nan nan nan nan nan nan nan nan nan nan nan nan nan nan nan nan nan nan nan nan nan nan nan nan nan nan nan nan nan nan nan nan nan nan nan nan nan nan nan nan nan nan
nan nan nan nan nan nan nan nan nan nan nan nan nan nan nan nan nan nan nan nan nan nan nan nan nan nan nan nan nan nan nan nan nan nan nan nan nan nan nan nan nan nan nan
nan nan nan nan nan nan nan nan nan nan nan nan nan nan nan nan nan nan nan nan nan nan nan nan nan nan nan nan nan nan nan nan nan nan nan nan nan nan nan nan nan nan nan
nan nan nan nan nan nan nan nan nan nan nan nan nan nan nan nan nan nan nan nan nan nan nan nan nan nan nan nan nan nan nan nan nan nan nan nan nan nan nan nan nan nan nan
nan nan nan nan nan nan nan nan nan nan nan nan nan nan nan nan nan nan nan nan nan nan nan nan nan nan nan nan nan nan nan nan nan nan nan nan nan nan nan nan nan nan nan
nan nan nan nan nan nan nan nan nan nan nan nan nan nan nan nan nan nan nan nan nan nan nan nan nan nan nan nan nan nan nan nan nan nan nan nan nan nan nan nan nan nan nan
nan nan nan nan nan nan nan nan nan nan nan nan nan nan nan nan nan nan nan nan nan nan nan nan nan nan nan nan nan nan nan nan nan nan nan nan nan nan nan nan nan nan nan
Wind_Direction
nan 284 281 277 282 285 291 288 294 298 296 295 294 294 294 300 305 310 nan nan nan nan nan nan nan nan nan nan nan nan nan nan nan nan nan nan nan nan nan nan 291 nan nan
nan nan nan 285 282 282 280 286 290 292 288 288 289 290 296 301 308 311 312 nan nan nan nan nan nan nan nan nan nan nan nan nan nan nan nan nan nan nan nan nan nan nan nan
nan nan nan 291 288 286 286 288 290 287 283 285 284 287 294 299 306 309 312 316 nan nan nan nan nan nan nan nan nan nan nan nan nan nan nan nan nan nan nan nan nan nan nan
nan nan nan nan 286 284 288 288 286 281 283 286 288 302 302 304 303 308 nan nan nan nan nan nan nan nan nan nan nan nan nan nan nan nan nan nan nan nan nan nan nan nan nan
nan nan nan nan nan 291 293 292 287 283 285 294 303 304 304 300 307 nan nan nan nan nan nan nan nan nan nan nan nan nan nan nan nan nan nan nan nan nan nan nan nan nan nan
nan nan 290 nan nan nan 294 292 288 289 298 306 307 313 309 311 nan nan nan nan nan nan nan nan nan nan nan nan nan nan nan nan nan nan nan nan nan nan nan nan nan nan nan
nan 294 294 nan nan nan 292 290 291 292 291 294 300 306 306 301 303 nan nan nan nan nan nan nan nan nan nan nan nan nan nan nan nan nan nan nan nan nan nan nan nan nan nan
nan nan 295 294 296 296 296 295 297 295 297 297 302 300 305 303 305 nan nan nan nan nan nan nan nan nan nan nan nan nan nan nan nan nan nan nan nan nan nan nan nan nan nan
nan nan 293 294 296 300 300 296 293 292 293 299 301 303 305 307 300 299 nan nan nan nan nan nan nan nan nan nan nan nan nan nan nan nan nan nan nan nan nan nan nan nan nan
nan nan nan nan 300 300 293 288 289 nan nan 304 308 309 304 304 298 295 299 299 295 nan nan nan nan nan nan nan nan nan nan nan nan nan nan nan nan nan nan nan nan nan nan
nan nan nan nan nan nan nan 287 283 nan nan 304 307 308 304 303 297 289 293 291 289 289 290 nan nan nan nan nan nan nan nan nan nan nan nan nan nan nan nan nan nan nan nan
nan nan nan nan nan nan nan nan nan nan nan nan 308 305 299 299 296 291 288 287 284 nan nan nan nan nan nan nan nan nan nan nan nan nan nan nan nan nan nan nan nan nan nan
nan nan nan nan nan nan nan nan nan nan nan nan 302 298 299 298 297 294 nan nan nan nan nan nan nan nan nan nan nan nan nan nan nan nan nan nan nan nan nan nan nan nan nan
nan nan nan nan nan nan nan nan nan nan nan nan nan 297 298 298 nan nan nan nan nan nan nan nan nan nan nan nan nan nan nan nan nan nan nan nan nan nan nan nan nan nan nan
nan nan nan nan nan nan nan nan nan nan nan nan nan nan 295 nan nan nan nan nan nan nan nan nan nan nan nan nan nan nan nan nan nan nan nan nan nan nan nan nan nan nan nan
nan nan nan nan nan nan nan nan nan nan nan nan nan nan nan nan nan nan nan nan nan nan nan nan nan nan nan nan nan nan nan nan nan nan nan nan nan nan nan nan nan nan nan
nan nan nan nan nan nan nan nan nan nan nan nan nan nan nan nan nan nan nan nan nan nan nan nan nan nan nan nan nan nan nan nan nan nan nan nan nan nan nan nan nan nan nan
nan nan nan nan nan nan nan nan nan nan nan nan nan nan nan nan nan nan nan nan nan nan nan nan nan nan nan nan nan nan nan nan nan nan nan nan nan nan nan nan nan nan nan
nan nan nan nan nan nan nan nan nan nan nan nan nan nan nan nan nan nan nan nan nan nan nan nan nan nan nan nan nan nan nan nan nan nan nan nan nan nan nan nan nan nan nan
nan nan nan nan nan nan nan nan nan nan nan nan nan nan nan nan nan nan nan nan nan nan nan nan nan nan nan nan nan nan nan nan nan nan nan nan nan nan nan nan nan nan nan
nan nan nan nan nan nan nan nan nan nan nan nan nan nan nan nan nan nan nan nan nan nan nan nan nan nan nan nan nan nan nan nan nan nan nan nan nan nan nan nan nan nan nan
nan nan nan nan nan nan nan nan nan nan nan nan nan nan nan nan nan nan nan nan nan nan nan nan nan nan nan nan nan nan nan nan nan nan nan nan nan nan nan nan nan nan nan
nan nan nan nan nan nan nan nan nan nan nan nan nan nan nan nan nan nan nan nan nan nan nan nan nan nan nan nan nan nan nan nan nan nan nan nan nan nan nan nan nan nan nan
nan nan nan nan nan nan nan nan nan nan nan nan nan nan nan nan nan nan nan nan nan nan nan nan nan nan nan nan nan nan nan nan nan nan nan nan nan nan nan nan nan nan nan
nan nan nan nan nan nan nan nan nan nan nan nan nan nan nan nan nan nan nan nan nan nan nan nan nan nan nan nan nan nan nan nan nan nan nan nan nan nan nan nan nan nan nan
nan nan nan nan nan nan nan nan nan nan nan nan nan nan nan nan nan nan nan nan nan nan nan nan nan nan nan nan nan nan nan nan nan nan nan nan nan nan nan nan nan nan nan